Weather History for KLWM - October, 2012

Change the Weather History Date:

Sunday, October 28, 2012

  Actual Average Record
Temperature  
Mean Temperature 52 °F -  
Max Temperature 55 °F 58 °F 79 °F (1971)
Min Temperature 50 °F 37 °F 19 °F (1936)
Degree Days  
Heating Degree Days 12    
Growing Degree Days 2 (Base 50)    
Moisture  
Dew Point 48 °F    
Average Humidity 83    
Maximum Humidity 89    
Minimum Humidity 74    
Precipitation  
Precipitation 0.02 in - - ()
Sea Level Pressure  
Sea Level Pressure 29.97 in    
Wind  
Wind Speed 10 mph (NE)    
Max Wind Speed 18 mph    
Max Gust Speed 28 mph    
Visibility 6 miles    
Events Rain    
Averages and records for this station are not official NWS values.
T = Trace of Precipitation, MM = Missing Value Source: NWS Daily Summary

Daily Weather History Graph

Daily Weather History Graph

Search for Another Location

Airport or City:

Trip Planner

Search our weather history database for the weather conditions in past years. The results will help you decide how hot, cold, wet, or windy it might be!

Date:

Astronomy

Oct. 28, 2012 Rise Set
Actual Time 7:14 AM EDT 5:41 PM EDT
Civil Twilight 6:44 AM EDT 6:10 PM EDT
Nautical Twilight 6:11 AM EDT 6:44 PM EDT
Astronomical Twilight 5:38 AM EDT 7:16 PM EDT
Moon 4:58 PM EDT 6:03 AM EDT
Length of Visible Light 11h 26m
Length of Day
10h 27m
Waxing Gibbous, 99% of the Moon is Illuminated
Oct 28
Waxing Gibbous
Oct 29
Full
Nov 6
Last Quarter
Nov 13
New
Nov 20
First Quarter

Hourly Weather History & Observations

Time (EDT) Temp. Dew Point Humidity Pressure Visibility Wind Dir Wind Speed Gust Speed Precip Events Conditions
12:54 AM 53.1 °F 46.9 °F 80% 30.04 in 10.0 mi NE 4.6 mph - N/A   Overcast
1:54 AM 52.0 °F 45.0 °F 77% 30.03 in 10.0 mi NE 6.9 mph - N/A   Clear
2:54 AM 53.1 °F 45.0 °F 74% 30.02 in 10.0 mi NE 8.1 mph - N/A   Clear
3:54 AM 52.0 °F 45.0 °F 77% 30.01 in 10.0 mi NE 6.9 mph - N/A   Clear
4:54 AM 51.1 °F 45.0 °F 80% 30.01 in 10.0 mi NNE 5.8 mph - N/A   Clear
5:54 AM 50.0 °F 44.1 °F 80% 30.01 in 10.0 mi NNE 6.9 mph - N/A   Clear
6:10 AM 51.8 °F 44.6 °F 76% 30.01 in 10.0 mi NNE 5.8 mph - N/A   Mostly Cloudy
6:54 AM 52.0 °F 46.0 °F 80% 30.01 in 10.0 mi NNE 6.9 mph - N/A   Overcast
7:54 AM 53.1 °F 48.0 °F 83% 30.02 in 10.0 mi NNE 8.1 mph - N/A   Overcast
8:33 AM 53.6 °F 48.2 °F 82% 30.02 in 10.0 mi NNE 6.9 mph - N/A   Overcast
8:46 AM 53.6 °F 48.2 °F 82% 30.03 in 10.0 mi NNE 9.2 mph - N/A   Overcast
8:54 AM 54.0 °F 48.9 °F 83% 30.03 in 10.0 mi NE 11.5 mph - N/A   Overcast
9:37 AM 55.4 °F 48.2 °F 77% 30.03 in 10.0 mi NNE 12.7 mph - N/A   Overcast
9:54 AM 55.0 °F 48.9 °F 80% 30.03 in 10.0 mi NE 11.5 mph - N/A   Overcast
10:03 AM 55.4 °F 48.2 °F 77% 30.03 in 10.0 mi NE 15.0 mph 19.6 mph N/A   Overcast
10:16 AM 55.4 °F 48.2 °F 77% 30.03 in 10.0 mi NE 16.1 mph 21.9 mph N/A   Overcast
10:23 AM 55.4 °F 48.2 °F 77% 30.02 in 10.0 mi NE 12.7 mph 21.9 mph N/A   Overcast
10:33 AM 55.4 °F 48.2 °F 77% 30.02 in 10.0 mi NE 15.0 mph 19.6 mph N/A   Overcast
10:54 AM 55.0 °F 48.9 °F 80% 30.02 in 5.0 mi NE 15.0 mph 20.7 mph 0.00 in Rain Light Rain
11:54 AM 54.0 °F 50.0 °F 86% 30.01 in 4.0 mi NE 16.1 mph - 0.00 in   Overcast
12:27 PM 53.6 °F 50.0 °F 88% 30.00 in 2.5 mi NE 12.7 mph 19.6 mph 0.00 in Rain Light Rain
12:54 PM 53.6 °F 50.0 °F 88% 29.99 in 2.0 mi NE 12.7 mph - N/A Rain Light Rain
1:54 PM 53.1 °F 50.0 °F 89% 29.96 in 2.0 mi NE 15.0 mph - 0.00 in Rain Light Rain
2:02 PM 53.6 °F 50.0 °F 88% 29.95 in 1.8 mi NE 15.0 mph - 0.00 in Rain Light Rain
2:10 PM 53.6 °F 50.0 °F 88% 29.95 in 3.0 mi NE 15.0 mph - 0.00 in Rain Light Rain
2:50 PM 53.6 °F 48.2 °F 82% 29.95 in 1.8 mi NE 11.5 mph 21.9 mph 0.00 in Rain Light Rain
2:54 PM 53.1 °F 48.9 °F 86% 29.95 in 1.8 mi NE 13.8 mph 21.9 mph 0.00 in Rain Light Rain
3:54 PM 52.0 °F 48.9 °F 89% 29.93 in 1.8 mi NE 13.8 mph 24.2 mph 0.00 in Rain Light Rain
4:04 PM 51.8 °F 48.2 °F 88% 29.92 in 2.0 mi NE 16.1 mph 27.6 mph 0.00 in Rain Light Rain
4:22 PM 51.8 °F 48.2 °F 88% 29.92 in 1.8 mi NE 18.4 mph - 0.00 in Rain Light Rain
4:54 PM 52.0 °F 48.0 °F 86% 29.92 in 1.2 mi NE 16.1 mph - 0.01 in Rain Light Rain
5:46 PM 51.8 °F 48.2 °F 88% 29.92 in 2.5 mi NE 17.3 mph 25.3 mph 0.00 in Rain Light Rain
5:54 PM 51.1 °F 48.0 °F 89% 29.93 in 5.0 mi NE 16.1 mph 24.2 mph 0.00 in   Overcast
6:54 PM 51.1 °F 46.9 °F 86% 29.93 in 7.0 mi NE 17.3 mph 24.2 mph 0.00 in   Overcast
7:54 PM 51.1 °F 46.9 °F 86% 29.93 in 8.0 mi NE 12.7 mph - 0.00 in Rain Light Rain
8:04 PM 51.8 °F 46.4 °F 82% 29.92 in 10.0 mi NE 9.2 mph - N/A   Overcast
8:11 PM 51.8 °F 46.4 °F 82% 29.92 in 8.0 mi NE 10.4 mph - 0.00 in   Overcast
8:54 PM 50.0 °F 46.4 °F 87% 29.90 in 4.0 mi NNE 11.5 mph - N/A Rain Light Rain
9:01 PM 50.0 °F 46.4 °F 87% 29.90 in 3.0 mi NNE 9.2 mph - 0.00 in Rain Light Rain
9:54 PM 50.0 °F 46.9 °F 89% 29.90 in 3.0 mi NNE 10.4 mph - 0.00 in Rain Light Rain
10:25 PM 50.0 °F 46.4 °F 87% 29.88 in 2.5 mi NNE 10.4 mph - 0.01 in Rain Light Rain
10:54 PM 50.0 °F 46.4 °F 87% 29.86 in 2.5 mi NNE 17.3 mph - N/A Rain Light Rain
11:01 PM 50.0 °F 46.4 °F 87% 29.85 in 3.0 mi NE 15.0 mph - 0.00 in Rain Light Rain
11:54 PM 51.1 °F 48.0 °F 89% 29.82 in 3.0 mi NE 15.0 mph - 0.01 in Rain Light Rain